Find STARLINK-37371

NORAD ID: 70610 Constellation: starlink operational
LEOCIRCULAR

リアルタイム位置

3D地球を読み込み中...

STARLINK-37371について

説明を読み込み中...

次回通過

Passes for default location (London). Set your location on the main map for personalized predictions.

高度履歴

Loading altitude history...

軌道要素

1 70610C 26099AC 26122.89284722 .00074646 00000+0 85650-4 0 1227
2 70610 53.1633 22.5412 0005578 285.2964 204.6858 16.08209498 15
Epoch: May 2, 2026 • Age: 30 hours